Wind_Speed
22 22 21 20 20 20 21 20 20 20 20 21 21 20 20 20 20 19 18 18 16 15 15 15 15 15 15 15 15 15 15 14 13 13 12 11 11 10 10 10 10 11 11 11
22 21 20 21 22 22 22 20 18 18 19 21 20 20 20 20 21 20 18 17 17 15 16 16 15 15 15 16 17 17 16 15 14 13 13 13 11 10 10 10 11 11 11 11
21 20 21 22 23 22 22 20 19 19 18 19 21 21 20 20 21 20 18 18 18 17 16 16 16 15 16 17 18 17 17 17 15 14 14 13 12 11 11 11 11 11 11 11
21 21 22 22 22 22 21 20 19 19 20 20 21 23 21 19 20 20 19 18 18 17 17 16 16 17 17 18 18 17 16 16 15 15 14 14 14 13 13 12 12 12 12 12
20 21 22 22 21 22 20 20 21 21 20 20 21 23 21 20 20 20 20 19 18 17 16 16 17 18 18 18 18 17 17 16 16 16 15 14 14 14 13 13 13 12 12 12
20 21 22 22 22 22 20 21 22 22 23 22 20 22 22 20 20 20 20 19 18 16 16 17 17 19 18 18 18 18 18 17 17 16 16 15 15 14 14 14 14 14 13 13
19 20 22 23 23 22 22 22 23 23 24 23 21 23 22 20 20 19 19 18 17 16 16 16 17 18 18 18 18 18 18 17 17 17 16 16 16 15 15 15 15 15 15 15
20 20 21 22 22 22 22 23 24 25 24 22 22 24 21 20 19 19 19 18 17 17 17 18 18 18 19 19 19 18 18 17 17 17 17 17 17 17 16 16 16 16 16 16
21 20 20 21 21 22 23 24 24 25 25 24 23 24 22 20 19 19 19 18 18 17 17 18 19 19 19 19 18 18 18 18 18 18 18 18 18 18 18 17 17 17 17 17
21 20 21 21 21 21 23 23 24 25 26 27 26 24 22 20 20 20 20 19 18 17 17 17 18 19 19 19 19 18 19 19 19 19 19 19 19 19 19 18 17 17 18 18
21 21 20 21 22 22 22 24 25 26 28 28 28 26 22 22 22 22 21 19 19 18 18 18 18 19 20 20 20 20 20 20 21 21 20 20 20 20 19 18 18 18 19 20
22 22 21 22 22 23 23 23 25 27 28 29 29 27 24 24 23 23 22 21 21 20 20 20 20 20 20 20 20 20 20 20 21 21 20 21 21 21 20 19 20 20 20 20
23 23 23 22 23 24 25 25 25 27 28 29 29 28 26 26 25 25 24 23 22 21 20 21 21 20 20 20 20 19 19 20 20 22 22 21 21 20 21 21 21 22 22 22
24 25 24 24 23 25 26 26 26 28 29 30 29 28 27 26 26 25 25 23 23 23 22 21 21 21 21 20 21 21 20 21 21 21 21 21 21 21 21 22 22 23 23 22
24 25 25 24 24 25 25 26 27 29 30 29 28 28 27 26 26 25 24 23 24 24 23 22 22 22 21 22 22 22 22 22 21 21 21 21 22 22 22 23 23 23 23 22
24 24 24 25 24 25 26 27 28 29 30 29 29 29 28 27 27 26 25 25 24 24 24 23 23 23 23 23 22 22 23 22 22 22 22 23 23 23 23 23 24 23 22 23
26 25 25 24 25 25 26 26 27 28 29 30 31 30 29 29 28 27 27 26 27 26 25 24 24 24 24 23 23 23 24 24 24 24 24 24 24 24 24 23 24 25 24 23
26 26 26 26 26 27 25 25 26 27 29 30 31 31 31 30 30 29 29 29 28 27 27 26 24 24 24 24 24 24 24 24 24 24 25 25 25 24 24 24 25 25 24 24
26 26 26 26 27 26 25 26 25 26 27 29 30 31 30 30 30 30 29 29 29 29 27 26 26 26 26 26 26 24 24 25 25 24 24 24 24 24 24 24 24 23 24 24
25 25 26 26 26 25 24 25 25 26 27 28 29 30 29 28 30 30 30 30 30 30 29 28 27 27 26 26 26 25 25 25 25 24 23 24 24 24 23 23 23 23 23 23
24 25 25 26 26 25 24 25 26 27 27 27 28 29 29 29 28 28 29 30 29 30 29 28 28 28 27 27 26 26 25 25 25 24 24 25 25 24 24 23 22 22 21 22
24 25 24 25 25 25 25 25 27 27 27 28 28 29 29 29 29 28 29 29 29 29 29 29 28 27 27 27 27 27 26 25 25 25 25 25 25 25 24 23 23 22 22 22
22 23 24 25 25 24 25 25 26 27 27 27 28 28 29 28 29 29 29 29 30 30 29 29 28 28 27 27 27 26 25 25 26 25 25 25 25 24 23 23 23 22 22 22
22 23 24 24 24 24 24 24 25 26 26 27 28 28 28 28 29 29 27 27 28 28 28 28 28 28 28 28 28 27 26 26 25 25 25 25 24 23 23 23 23 22 22 22
21 22 23 24 23 23 23 23 24 24 25 26 25 25 26 26 27 27 27 27 27 28 28 27 27 26 27 27 26 26 26 25 24 24 24 24 24 23 22 22 22 22 22 22
20 21 22 23 23 22 21 22 24 24 24 24 24 24 23 24 25 24 25 25 26 26 25 26 26 25 25 25 24 24 25 24 23 23 23 23 23 23 23 23 23 23 23 23
Wind_Direction
229 229 227 227 228 229 233 235 235 237 240 243 249 257 259 258 258 262 268 270 273 275 273 271 274 274 277 278 277 282 280 280 276 275 277 277 281 282 280 283 289 296 303 302
229 228 226 226 228 230 232 235 236 239 241 243 247 253 256 255 257 263 267 268 274 276 273 271 274 274 275 277 277 276 275 276 270 270 270 271 274 280 277 279 284 290 296 296
231 228 227 228 229 232 233 235 234 236 241 247 251 252 251 254 256 259 265 270 273 276 279 275 274 274 275 276 278 277 274 274 267 267 266 265 267 274 275 277 283 286 288 289
228 227 228 229 230 233 237 238 239 238 239 245 251 253 250 252 256 260 264 267 272 275 277 273 273 272 275 275 277 277 277 274 270 269 265 262 264 269 271 273 279 280 281 283
228 229 230 229 231 235 238 238 238 238 240 245 249 255 256 257 258 264 267 267 271 275 274 273 273 273 272 272 275 275 275 273 270 270 263 262 263 268 267 269 275 277 277 276
229 230 231 230 232 236 237 236 235 237 242 245 248 254 256 254 259 265 267 270 272 271 273 275 275 272 269 270 271 269 268 269 267 264 262 260 262 266 268 267 271 275 272 272
233 232 234 234 234 233 234 235 236 236 241 245 246 250 254 253 258 266 269 266 265 268 273 275 274 272 271 270 267 263 263 265 262 262 262 262 263 265 268 269 271 273 273 273
235 232 233 235 237 238 237 236 238 242 245 248 244 249 255 254 257 261 266 264 262 264 268 269 270 272 272 272 268 265 265 263 262 263 263 263 262 264 268 270 272 273 273 273
239 236 233 234 235 237 237 237 239 243 246 248 246 250 256 254 256 257 258 264 269 267 267 269 270 271 272 270 268 268 268 266 264 265 264 263 263 264 268 270 272 273 272 272
239 237 234 236 236 237 240 238 238 242 244 246 248 250 254 254 257 261 263 264 269 269 270 272 272 270 269 269 269 268 268 268 266 265 264 265 267 267 268 269 271 272 271 273
238 237 232 234 236 236 235 236 240 243 244 246 250 252 254 255 256 258 260 264 265 264 265 267 267 268 267 269 269 268 268 266 265 265 265 265 267 269 267 268 270 271 270 270
240 239 236 235 237 238 237 238 241 242 243 246 250 252 252 254 256 257 257 259 263 266 265 265 265 266 267 266 265 266 266 266 266 266 264 264 267 269 267 268 269 269 267 267
240 239 239 239 238 238 237 236 238 242 244 247 251 253 252 255 257 257 257 258 261 264 268 267 265 264 265 263 263 267 267 265 265 265 262 264 268 269 269 270 270 268 268 268
242 243 240 240 240 240 239 239 240 242 243 246 250 253 253 253 256 257 257 258 259 264 267 270 268 263 265 265 265 266 268 265 265 265 264 266 268 270 270 271 272 271 268 267
244 245 243 241 241 242 243 242 242 243 246 249 251 253 253 254 257 258 260 259 259 262 265 269 268 268 269 269 269 267 268 267 265 265 268 269 269 271 271 271 271 271 268 266
246 248 246 243 243 245 243 242 244 245 248 251 252 254 256 256 256 257 262 261 260 260 264 266 267 266 268 268 269 269 271 269 266 268 269 270 270 271 272 272 269 269 267 264
247 249 250 248 246 245 241 242 244 246 248 250 252 254 257 257 257 258 260 260 262 263 264 265 265 265 265 267 270 269 271 272 270 270 271 271 272 273 272 271 269 267 267 264
249 251 251 251 249 247 244 245 246 248 249 251 253 254 256 257 257 259 260 261 262 262 264 265 265 266 267 268 268 268 270 271 272 271 270 271 271 272 271 272 270 268 266 266
249 251 252 252 250 249 247 247 249 250 250 252 254 255 254 255 256 257 260 261 262 263 264 265 264 266 270 271 272 271 270 271 272 271 270 270 271 273 274 273 270 267 265 266
249 250 251 253 253 253 251 250 252 254 254 253 254 255 257 257 258 259 260 261 262 261 262 262 263 267 271 272 271 270 270 269 268 268 269 269 270 274 275 274 271 267 265 264
250 250 252 254 256 254 253 253 253 257 258 256 256 258 257 259 259 259 259 260 261 262 262 262 265 267 270 270 270 269 266 265 265 267 269 268 270 271 273 273 271 268 267 266
251 251 251 253 255 255 256 256 256 257 258 258 257 258 258 258 258 258 258 259 261 262 262 263 265 265 267 268 269 267 265 264 265 266 268 268 270 269 271 271 271 271 268 267
252 251 253 255 256 257 256 258 258 257 257 260 260 261 261 259 259 259 258 259 260 260 262 262 263 264 263 265 266 268 267 265 264 266 268 269 269 269 269 269 270 268 269 268
253 254 255 256 256 257 259 259 261 259 260 261 262 260 259 259 259 259 261 262 260 258 259 259 261 263 264 266 268 267 264 263 264 265 266 266 268 269 268 267 266 265 267 268
253 254 255 255 255 257 258 259 260 260 259 261 260 259 258 260 260 261 262 262 261 257 257 260 264 264 264 267 269 265 263 261 263 263 263 265 266 266 266 265 265 265 263 263
256 255 255 256 256 256 257 258 259 261 262 262 264 265 264 263 262 263 261 262 262 258 257 259 260 261 263 265 267 266 264 262 264 263 263 264 264 264 264 264 264 262 260 261
Height
5832 5835 5838 5841 5843 5846 5847 5848 5850 5852 5852 5852 5852 5853 5854 5855 5856 5857 5858 5859 5859 5859 5859 5859 5859 5859 5858 5858 5857 5857 5856 5856 5856 5856 5856 5856 5856 5855 5855 5855 5855 5855 5854 5854
5827 5831 5834 5835 5837 5839 5841 5843 5845 5847 5847 5847 5847 5848 5849 5850 5851 5852 5853 5854 5854 5855 5855 5855 5855 5855 5855 5854 5853 5853 5853 5853 5853 5852 5853 5853 5852 5852 5852 5852 5852 5852 5852 5851
5823 5827 5828 5830 5832 5834 5836 5838 5840 5842 5842 5842 5843 5844 5845 5845 5846 5847 5848 5849 5850 5850 5851 5851 5851 5851 5851 5850 5849 5849 5848 5848 5848 5848 5849 5849 5849 5849 5849 5849 5849 5849 5849 5848
5817 5821 5823 5825 5827 5829 5832 5834 5836 5837 5837 5838 5839 5838 5840 5841 5841 5843 5843 5844 5845 5846 5846 5846 5846 5846 5846 5845 5845 5845 5844 5844 5844 5844 5845 5845 5845 5846 5846 5846 5846 5846 5845 5845
5813 5816 5818 5820 5823 5824 5827 5829 5831 5832 5832 5833 5833 5833 5835 5835 5836 5838 5839 5839 5840 5841 5841 5841 5841 5841 5841 5841 5841 5841 5841 5841 5840 5840 5840 5841 5842 5842 5842 5842 5842 5842 5841 5841
5808 5811 5813 5815 5818 5820 5822 5824 5825 5826 5826 5827 5829 5829 5830 5831 5832 5833 5834 5835 5835 5835 5836 5836 5836 5836 5836 5836 5836 5836 5836 5836 5836 5837 5837 5837 5838 5838 5838 5838 5838 5838 5837 5837
5803 5805 5807 5810 5812 5814 5816 5818 5819 5820 5820 5822 5824 5823 5825 5826 5827 5828 5829 5829 5830 5830 5831 5831 5831 5831 5831 5831 5831 5831 5831 5831 5832 5832 5833 5833 5834 5834 5834 5833 5833 5833 5833 5833
5798 5801 5803 5805 5807 5809 5811 5812 5814 5815 5816 5818 5819 5818 5821 5822 5822 5822 5823 5823 5824 5825 5825 5826 5826 5826 5826 5826 5826 5826 5826 5827 5827 5827 5828 5829 5829 5829 5829 5829 5828 5828 5828 5828
5792 5796 5798 5800 5802 5804 5805 5806 5809 5810 5811 5812 5813 5814 5815 5816 5816 5816 5817 5817 5818 5819 5819 5820 5820 5820 5821 5821 5822 5822 5822 5822 5823 5823 5823 5823 5824 5824 5824 5824 5823 5823 5823 5823
5787 5790 5793 5795 5797 5798 5800 5802 5803 5804 5804 5805 5806 5807 5810 5810 5811 5812 5812 5813 5813 5813 5814 5815 5815 5815 5815 5816 5816 5817 5818 5818 5818 5817 5817 5817 5818 5818 5818 5818 5818 5818 5818 5817
5782 5784 5787 5789 5791 5793 5795 5796 5796 5798 5799 5799 5800 5804 5805 5806 5806 5807 5807 5807 5807 5808 5808 5809 5809 5810 5810 5811 5811 5812 5812 5812 5812 5812 5812 5812 5812 5812 5812 5812 5812 5812 5812 5812
5776 5779 5781 5783 5785 5787 5788 5790 5791 5792 5793 5793 5794 5799 5799 5800 5800 5800 5801 5802 5802 5803 5803 5803 5804 5804 5804 5805 5806 5806 5806 5806 5806 5806 5806 5806 5806 5806 5806 5806 5807 5807 5807 5807
5771 5773 5775 5777 5781 5781 5781 5783 5784 5785 5787 5787 5788 5793 5793 5793 5794 5794 5795 5796 5796 5797 5798 5798 5798 5798 5799 5799 5800 5800 5800 5800 5800 5800 5800 5800 5800 5800 5800 5800 5800 5800 5800 5800
5765 5766 5769 5771 5772 5773 5775 5776 5778 5779 5779 5780 5782 5784 5786 5787 5788 5788 5789 5790 5791 5792 5793 5793 5793 5793 5793 5793 5794 5794 5794 5794 5794 5794 5793 5794 5794 5794 5794 5794 5794 5793 5793 5793
5758 5759 5761 5763 5765 5767 5768 5770 5771 5772 5772 5774 5776 5777 5779 5781 5782 5783 5783 5784 5784 5785 5786 5787 5787 5787 5787 5787 5787 5788 5788 5788 5788 5787 5787 5788 5788 5788 5788 5787 5787 5787 5787 5787
5752 5753 5755 5757 5758 5759 5761 5762 5764 5765 5766 5767 5768 5770 5772 5774 5775 5775 5776 5777 5778 5779 5780 5781 5781 5782 5782 5782 5781 5781 5781 5781 5781 5781 5781 5781 5781 5781 5780 5780 5780 5779 5779 5780
5745 5746 5748 5749 5751 5752 5753 5756 5757 5758 5759 5760 5761 5764 5764 5766 5767 5768 5769 5770 5771 5772 5772 5773 5774 5775 5775 5775 5775 5775 5775 5774 5774 5774 5774 5774 5774 5773 5773 5773 5772 5772 5772 5772
5738 5739 5740 5742 5745 5745 5750 5749 5750 5751 5751 5752 5754 5756 5757 5758 5759 5760 5761 5762 5763 5764 5765 5766 5766 5767 5768 5768 5768 5768 5768 5768 5768 5767 5767 5767 5766 5766 5766 5765 5765 5764 5765 5765
5730 5732 5733 5734 5735 5737 5741 5742 5742 5743 5744 5745 5746 5747 5749 5750 5751 5752 5753 5754 5756 5756 5757 5758 5759 5760 5760 5761 5760 5760 5761 5760 5761 5760 5760 5760 5759 5759 5758 5758 5758 5757 5758 5758
5723 5724 5726 5726 5727 5730 5734 5734 5734 5736 5737 5738 5739 5740 5741 5742 5743 5745 5746 5747 5748 5749 5750 5751 5751 5752 5753 5753 5753 5753 5753 5753 5753 5753 5753 5753 5752 5752 5751 5751 5750 5750 5750 5750
5716 5717 5719 5720 5720 5723 5726 5726 5728 5729 5730 5730 5731 5731 5733 5734 5736 5738 5738 5739 5740 5741 5741 5742 5743 5744 5745 5746 5746 5746 5745 5746 5746 5746 5746 5746 5745 5745 5744 5744 5743 5743 5743 5743
5709 5710 5712 5713 5714 5718 5718 5719 5720 5721 5721 5722 5722 5723 5725 5726 5727 5728 5730 5731 5732 5733 5734 5735 5736 5737 5737 5737 5737 5737 5737 5738 5738 5738 5738 5738 5737 5737 5737 5737 5736 5736 5736 5736
5702 5704 5704 5707 5709 5710 5710 5711 5711 5712 5713 5713 5714 5715 5716 5717 5718 5720 5722 5722 5723 5724 5726 5727 5728 5728 5729 5729 5729 5729 5729 5730 5730 5730 5730 5730 5730 5730 5730 5730 5730 5730 5730 5729
5696 5696 5698 5699 5700 5701 5702 5703 5704 5704 5705 5705 5706 5707 5708 5709 5710 5711 5712 5713 5714 5716 5717 5718 5719 5719 5720 5720 5721 5721 5721 5721 5722 5722 5722 5722 5722 5722 5722 5722 5723 5723 5723 5723
5689 5690 5691 5692 5693 5694 5695 5696 5697 5697 5697 5698 5697 5698 5699 5700 5701 5702 5703 5705 5705 5707 5708 5709 5710 5711 5712 5712 5712 5713 5713 5713 5713 5714 5714 5715 5715 5715 5715 5715 5715 5716 5716 5717
5683 5684 5684 5685 5686 5687 5688 5689 5690 5690 5691 5691 5691 5692 5692 5692 5693 5694 5695 5696 5697 5698 5700 5701 5702 5703 5704 5705 5705 5705 5706 5706 5706 5706 5707 5707 5707 5707 5708 5708 5709 5709 5709 5710